OBJECT G, 63297

Orbit data source: Space-Track

You're viewing an Uncataloged Satellite

Recently launched and/or uncataloged satellites may have evolving metadata. Metadata may include but not limited to: Owner, Maufacturer, Bus, Motor, and Mission.

OBJECT G, 63297 is a Chinese satellite in SSO that was launched on Mon, 17 Mar 2025 UTC via a GUSHENXING 1 launch vehicle from the Jiuquan Satellite Launch Center, China (JSC). Unknown objects in Earth's orbit typically refer to objects detected orbiting the Earth but have not yet been identified or cataloged. These objects could be anything from previously untracked satellites, spent rocket stages, debris from satellite collisions, or even natural meteoroids temporarily captured by Earth's gravity.

Loading next visibility...
Identifier
63297, 2025-055G
Orbit
SSO
Last TLE update
3 hours ago
Origin
Flag of CNZHWK/JIG (CN / PRC)
Manufacturer
ZHWK/HITSAT
Mission
Operational Commercial Imaging
Bus & Motor
ZK1, Unknown motor
Mass
~250 kg wet, ~250 kg dry
Launch date (UTC)
2025-03-17 (2 months ago)
Launch vehicle
GUSHENXING 1
Launch site
Jiuquan Satellite Launch Center, China (JSC)
Object type
Unknown
Shape & HBR
Box + 3 Pan, 6 m
Radar Cross Section
3.533 m², Medium (>0.1 m² and < 1m²)

Expand to show TLE details & history

TLE from 3 hours ago
0 OBJECT G
1 63297U 25055G   25129.17444036  .00014312  00000-0  84049-3 0  9991
2 63297  97.6058 264.2323 0012838 114.5545 245.7024 15.11753836  7947
Epoch: 2025-05-09T04:11Z
Definitive object data (Epoch: 2025-05-09T04:11:11.647Z)
Latitude
-0.00006°
Longitude
-25.80059°
Altitude
537.585 km
Speed
7.592 km/s
True Right ascension
17h 36m 55s
True Declination
0° 00' 00"
Sunlit
Object was in full shadow at TLE epoch
Visualization TLE readout
Latitude
-53.8696°
Longitude
-15.19759°
Altitude
560.482 km
Speed
7.575 km/s
Apparent Right ascension
23h 35m 23s
Apparent Declination
-69° 40' 37"
Sunlit
Object is in full shadow
Visualization observer readout
Local Sidereal Time
15:16:19
Azimuth
154.274° SSE
Elevation
-48.905°
Doppler factor
1
Orbital elements
Apogee altitude
536.703 km
Perigee altitude
518.971 km
Semi-major axis
6,905.974 km
Eccentricity
0.0012838
Inclination
97.6058°
RAAN
264.2323°
Arg. of periapsis
114.5545°
True anomaly
245.56841°
Mean anomaly
245.7024°
Eccentric anomaly
245.63539°
Mean motion
3.78186 °/min
BSTAR
0.00084049
Orbital period
95.19 mins
Loading maneuver chart data...
Loading SW <> Apogee altitude chart data...
Loading historical data...
Loading historical data...
Loading historical data...
Loading historical data...
Loading historical data...
Loading historical data...
Loading historical data...

OBJECT G Visibility forecast

Observer location: undefined°, undefined°

Span
Click to sort rows by Start time (UTC) header in descending order
Start Az.
Max El. time (UTC)
Max El. Az.
Max El.
End time (UTC)
End Az.
7 mins2025-05-09 09:04:22.729Z171.553° S2025-05-09 09:07:22.729Z202.214° SSW43.131°2025-05-09 09:11:22.729Z344.935° N
5 mins2025-05-09 22:14:22.729Z345.967° N2025-05-09 22:16:22.729Z279.346° WNW35.277°2025-05-09 22:19:22.729Z215.624° SW
|